This is the latest recevied weather packets stored in our database for station/object YD1OCG-15. If no packets are shown the sender has not sent any weather packets the latest 10 day(s).
| Time | Temp. | Humidity | Pressure | Rain* | Wind** | Luminosity | Snow |
|---|---|---|---|---|---|---|---|
| 1788240384 | 31.67° C | 57% | 1013 hPa | - | - | - | - |
| 1788238588 | 31.11° C | 59% | 1013 hPa | - | - | - | - |
| 1788236788 | 30.56° C | 59% | 1014 hPa | - | - | - | - |
| 1788215964 | 26.11° C | 83% | 1015 hPa | - | - | - | - |
| 1788214164 | 25.56° C | 78% | 1014 hPa | - | - | - | - |
| 1788210563 | 26.11° C | 77% | 1014 hPa | - | - | - | - |
| 1788206964 | 26.67° C | 77% | 1014 hPa | - | - | - | - |
| 1788205163 | 27.22° C | 86% | 1015 hPa | - | - | - | - |
| 1788203364 | 26.67° C | 78% | 1014 hPa | - | - | - | - |
| 1788201564 | 27.78° C | 87% | 1015 hPa | - | - | - | - |
| 1788199763 | 27.78° C | 83% | 1015 hPa | - | - | - | - |
| 1788197964 | 27.78° C | 84% | 1015 hPa | - | - | - | - |
| 1788196164 | 27.22° C | 74% | 1015 hPa | - | - | - | - |
| 1788194363 | 27.22° C | 82% | 1016 hPa | - | - | - | - |
| 1788192563 | 26.67° C | 75% | 1015 hPa | - | - | - | - |
| 1788190763 | 27.22° C | 78% | 1016 hPa | - | - | - | - |
| 1788188963 | 26.67° C | 72% | 1016 hPa | - | - | - | - |
| 1788187164 | 26.67° C | 79% | 1016 hPa | - | - | - | - |
| 1788185364 | 27.22° C | 74% | 1015 hPa | - | - | - | - |
| 1788182004 | 27.78° C | 71% | 1015 hPa | - | - | - | - |
| 1788180203 | 28.89° C | 75% | 1015 hPa | - | - | - | - |
| 1788178403 | 28.89° C | 70% | 1014 hPa | - | - | - | - |
| 1788174804 | 28.33° C | 68% | 1013 hPa | - | - | - | - |
| 1788173004 | 28.89° C | 71% | 1013 hPa | - | - | - | - |
| 1788171204 | 28.89° C | 10% | - | - | - | - | - |
* Rain since midnight (hover to see other rain measurements)
** Current wind speed in m/s (hover to see current wind gust speed)